Regional Weather Roundup
Issued by NWS

Home | Current Version | Previous Version | Graphics & Text | Print | Product List | Glossary Off
Versions: 1 2 3 4 5 6 7 8 9 10 11 12 13 14 15 16 17 18 19 20 21 22 23 24 25 26 27 28 29 30 31 32 33 34 35 36 37 38 39 40 41 42 43 44 45 46 47 48 49 50

000
ASUS43 KMKX 070821
RWRWI

WISCONSIN REGIONAL WEATHER ROUNDUP
NATIONAL WEATHER SERVICE MILWAUKEE/SULLIVAN WI
200 AM CST WED DEC 07 2016

NOTE: "FAIR" INDICATES FEW OR NO CLOUDS BELOW 12,000 FEET WITH NO
SIGNIFICANT WEATHER AND/OR OBSTRUCTIONS TO VISIBILITY.

WIZ001-002-006>008-014>016-023>028-070900-
NORTHWEST WISCONSIN

CITY           SKY/WX    TMP DP  RH WIND       PRES   REMARKS
SUPERIOR ARPT  CLOUDY    21  14  73 W20G25    29.67R WCI   6
ASHLAND        CLOUDY    21  13  71 SW22G31   29.66R WCI   5
HAYWARD        LGT SNOW  19  12  74 SW14G22   29.70R WCI   6
SIREN          FLURRIES  19  12  76 W17G24    29.76R WCI   4
CUMBERLAND     FLURRIES  19  10  68 W16G24    29.76R WCI   5
RICE LAKE      FLURRIES  19  13  77 SW15G23   29.79R WCI   5
CHETEK         FLURRIES  18  13  81 SW8       29.79S WCI   8
LADYSMITH      LGT SNOW  19  14  82 SW13G22   29.76S WCI   6
EAU CLAIRE     FLURRIES  18  11  74 W17G28    29.84R WCI   3
MENOMONIE      CLOUDY    19  13  78 SW16G23   29.85S WCI   4
NEW RICHMOND   CLOUDY    19  12  74 W16G22    29.82S WCI   4
OSCEOLA        CLOUDY    20  13  73 W21G28    29.86R WCI   4
$$

WIZ003>005-009-010-017-018-070900-
NORTH CENTRAL WISCONSIN

CITY           SKY/WX    TMP DP  RH WIND       PRES   REMARKS
MANITOWISH WTR FLURRIES  18  13  82 SW14G25   29.64R WCI   4
ARBOR VITAE    LGT SNOW  19  14  79 SW13G21   29.67R WCI   6
WOODRUFF       LGT SNOW  19  14  79 SW13G21   29.67R WCI   6
RHINELANDER    LGT SNOW  19  13  77 W20G29    29.69R WCI   3
EAGLE RIVER    FLURRIES  19  12  76 SW14      29.65R WCI   5
LAND O LAKES   LGT SNOW  19  14  79 SW14G24   29.65R WCI   6
PHILLIPS       LGT SNOW  17  14  85 SW16      29.69R WCI   2
TOMAHAWK       LGT SNOW  17  12  80 SW7       29.73R WCI   8
MEDFORD        LGT SNOW  16  11  80 SW15G23   29.76R WCI   1
MERRILL        LGT SNOW  18  13  80 W15G30    29.76S WCI   3
$$

WIZ029-030-035-036-043>047-070900-
CENTRAL WISCONSIN

CITY           SKY/WX    TMP DP  RH WIND       PRES   REMARKS
WAUSAU         FLURRIES  18  12  77 W18G29    29.78R WCI   2
MOSINEE        FLURRIES  19  16  86 W22G29    29.80R WCI   3
MARSHFIELD     CLOUDY    19  12  74 W18G25    29.79R WCI   4
STEVENS POINT  CLOUDY    19  13  76 SW14      29.82R WCI   6
WAUPACA        PTCLDY    24  16  69 SW14      29.84R WCI  12
WAUTOMA        MOCLDY    22  15  75 W14       29.87R WCI   9
WISC RAPIDS    CLOUDY    20  13  74 W8G21     29.85R WCI  10
CAMP DOUGLAS   PTCLDY    20  13  74 W12       29.88R WCI   8
$$

WIZ011>013-019>022-031-037>040-048>050-070900-
NORTHEAST WISCONSIN

CITY           SKY/WX    TMP DP  RH WIND       PRES   REMARKS
ANTIGO         FLURRIES  18  13  81 W22G31    29.74R WCI   1
SHAWANO        CLOUDY    27  17  65 W13G28    29.80R WCI  16
OCONTO         CLOUDY    26  15  63 W15G22    29.79S WCI  14
STURGEON BAY   CLOUDY    27  17  66 W23G29    29.78R WCI  12
GREEN BAY      FLURRIES  28  18  66 W14G30    29.82R WCI  17
MANITOWOC      CLOUDY    27  18  69 W14G21    29.84R WCI  16
APPLETON       CLOUDY    27  16  63 SW20G25   29.81S WCI  13
CLINTONVILLE   CLOUDY    27  16  63 SW14      29.81R WCI  15
OSHKOSH        PTCLDY    24  14  65 W15G22    29.85R WCI  11
$$

WIZ032>034-041-042-053>061-070900-
SOUTHWEST WISCONSIN

CITY           SKY/WX    TMP DP  RH WIND       PRES   REMARKS
LA CROSSE      CLOUDY    22  12  65 W13       29.96R WCI  10
SPARTA         MOCLDY    20  14  76 SW12G22   29.91R WCI   8
VIROQUA        CLOUDY    19  13  79 W20G28    29.92R WCI   2
BOSCOBEL       CLOUDY    23  14  68 SW8       29.99R WCI  14
PRAIRIE DU CHI MOCLDY    21  12  66 W17       30.01R WCI   7
PLATTEVILLE    CLEAR     21  15  80 W15       29.99R WCI   7
$$

WIZ056-057-062-063-064-067-068-070900-
SOUTH CENTRAL WISCONSIN

CITY           SKY/WX    TMP DP  RH WIND       PRES   REMARKS
REEDSBURG      CLOUDY    21  14  74 SW13G20   29.92R WCI   9
BARABOO/DELLS  PTCLDY    22  14  74 SW12G18   29.90R WCI  10
LONE ROCK      CLOUDY    23  15  71 W13G21    29.96R WCI  11
MINERAL POINT  CLOUDY    23  18  80 W13       29.95R WCI  11
MADISON        MOCLDY    23  16  74 SW8G21    29.93R WCI  14
MIDDLETON      NOT AVBL
WATERTOWN      CLEAR     22  17  78 SW14      29.92R WCI  10
MONROE         CLEAR     23  16  74 SW21G26   29.95S WCI   8
JANESVILLE     CLEAR     27  18  69 SW10      29.97R WCI  17
$$

WIZ051-052-058>065-066-070>072-070900-
SOUTHEAST WISCONSIN

CITY           SKY/WX    TMP DP  RH WIND       PRES   REMARKS
MILWAUKEE      CLEAR     26  16  65 W17G24    29.91R WCI  13
WAUKESHA       CLEAR     21  16  79 SW14G21   29.92R WCI   8
MILWAUKEE/TIMM CLEAR     25  16  68 SW12G21   29.91S WCI  14
RACINE         CLEAR     25  16  68 W15G25    29.95R WCI  13
BURLINGTON     CLEAR     24  17  76 W12G21    29.95R WCI  13
KENOSHA        CLEAR     25  17  72 W18G26    29.94R WCI  11
FOND DU LAC    CLEAR     24  14  65 SW8       29.87R WCI  15
SHEBOYGAN      CLEAR     25  16  68 W17       29.86R WCI  12
WEST BEND      PTCLDY    25  18  74 W8        29.88R WCI  16
JUNEAU         CLEAR     22  15  76 SW14      29.90S WCI   9
$$

LSZ147-162-070900-
LAKE SUPERIOR

STATION/POSITION TIME  TEMP    WIND        PRES    WAVE
                       AIR SEA DIR/SP/G            HT/PER
                 (UTC) (F)     (DEG/KT/KT) (MB)    (FT/S)
DEVILS ISLAND    0800   28     240/ 29/ 38 1002.6R
PORT WING        0740   23     220/ 15/ 21 1004.1R
SAXON HARBOR     0730   22     220/ 14/ 20 1004.4R
$$

LMZ867-665-643>646-070900-
LAKE MICHIGAN

STATION/POSITION TIME  TEMP    WIND        PRES    WAVE
                       AIR SEA DIR/SP/G            HT/PER
                 (UTC) (F)     (DEG/KT/KT) (MB)    (FT/S)
CHAMBERS ISLAND  0740   28     210/  9/ 21 1007.5R
NORTHPORT PIER   0741   28     260/  7     1007.8R
SISTER BAY       0709   30     290/ 26/ 34   N/A
KEWAUNEE LAKESHO 0800   27     340/ 14/ 18 1009.3
SHEBOYGAN LAKESH 0800   27     240/ 13/ 15 1011.8R
PORT WASHINGTON  0730   27     260/ 11/ 23 1012.9R
MILWAUKEE LAKESH 0800   26     250/ 14/ 17   N/A
KENOSHA   LAKESH 0800   26     250/ 18/ 26 1014.2
$$

TC  - TEMPERATURE IN CELSIUS
VSB - VISIBILITY IN STATUTE MILES
WCI - WIND CHILL INDEX
HX  - HEAT INDEX




USA.gov is the U.S. government's official web portal to all federal, state and local government web resources and services.